EWG5AE EDDC-EDDL

Flight info

Callsign EWG5AE
Flight time 0h 48m
Altitude 24000
Route BEBEX7E/04 BEBEX Q230 WRB T854 DOMUX DOMUX1A
Aircraft A320/M-SDE3FGHIRWY/2200

Departure

Time 2026-04-30 19:42
Airport Dresden Airport (EDDC)

Arrival

Time 2026-04-30 20:30
Airport Düsseldorf Airport (EDDL)
Time Latitude Longitude Altitude Speed Heading
2026-04-30 19:11 51.12595 13.76604 711 ft 0 kts 221°
2026-04-30 19:32 51.12607 13.76620 711 ft 4 kts 221°
2026-04-30 19:32 51.12627 13.76649 716 ft 4 kts 224°
2026-04-30 19:32 51.12646 13.76680 713 ft 4 kts 239°
2026-04-30 19:32 51.12651 13.76714 712 ft 4 kts 310°
2026-04-30 19:33 51.12643 13.76728 712 ft 0 kts 311°
2026-04-30 19:37 51.12660 13.76697 716 ft 12 kts 311°
2026-04-30 19:37 51.12717 13.76594 712 ft 13 kts 311°
2026-04-30 19:37 51.12771 13.76492 712 ft 11 kts 311°
2026-04-30 19:38 51.12774 13.76377 714 ft 14 kts 229°
2026-04-30 19:38 51.12689 13.76254 712 ft 18 kts 221°
2026-04-30 19:38 51.12597 13.76127 713 ft 16 kts 221°
2026-04-30 19:38 51.12509 13.76007 713 ft 17 kts 221°
2026-04-30 19:39 51.12435 13.75905 716 ft 12 kts 220°
2026-04-30 19:39 51.12378 13.75822 712 ft 10 kts 232°
2026-04-30 19:39 51.12382 13.75715 716 ft 10 kts 291°
2026-04-30 19:39 51.12389 13.75686 712 ft 2 kts 292°
2026-04-30 19:40 51.12398 13.75651 715 ft 4 kts 292°
2026-04-30 19:40 51.12401 13.75637 713 ft 0 kts 292°
2026-04-30 19:41 51.12407 13.75617 711 ft 7 kts 293°
2026-04-30 19:41 51.12452 13.75527 713 ft 10 kts 321°
2026-04-30 19:41 51.12548 13.75575 714 ft 39 kts 37°
2026-04-30 19:41 51.12983 13.76173 714 ft 124 kts 41°
2026-04-30 19:42 51.13804 13.77306 719 ft 185 kts 39°
2026-04-30 19:42 51.14848 13.78741 1096 ft 199 kts 42°
2026-04-30 19:42 51.15905 13.80249 1649 ft 209 kts 41°
2026-04-30 19:42 51.17039 13.81835 2162 ft 225 kts 41°
2026-04-30 19:43 51.18277 13.83545 2692 ft 244 kts 39°
2026-04-30 19:43 51.19795 13.84767 3210 ft 250 kts
2026-04-30 19:43 51.21546 13.84699 3729 ft 253 kts 356°
2026-04-30 19:44 51.25070 13.84080 4757 ft 257 kts 356°
2026-04-30 19:44 51.26854 13.83752 5281 ft 260 kts 356°
2026-04-30 19:44 51.28651 13.83359 5779 ft 264 kts 348°
2026-04-30 19:44 51.30329 13.82092 6311 ft 272 kts 325°
2026-04-30 19:45 51.31584 13.79800 6839 ft 280 kts 301°
2026-04-30 19:45 51.32169 13.76804 7324 ft 287 kts 278°
2026-04-30 19:45 51.32358 13.73613 7820 ft 290 kts 277°
2026-04-30 19:45 51.32540 13.70390 8325 ft 293 kts 277°
2026-04-30 19:46 51.32722 13.67125 8840 ft 296 kts 278°
2026-04-30 19:46 51.32909 13.63835 9361 ft 299 kts 278°
2026-04-30 19:46 51.33100 13.60505 9890 ft 302 kts 278°
2026-04-30 19:46 51.33229 13.58280 10256 ft 304 kts 278°
2026-04-30 19:47 51.33423 13.54904 10733 ft 308 kts 278°
2026-04-30 19:47 51.33622 13.51405 11233 ft 323 kts 278°
2026-04-30 19:47 51.33830 13.47744 11735 ft 337 kts 278°
2026-04-30 19:47 51.34046 13.43937 12238 ft 351 kts 278°
2026-04-30 19:48 51.34267 13.39982 12755 ft 363 kts 278°
2026-04-30 19:48 51.34492 13.35909 13279 ft 373 kts 278°
2026-04-30 19:48 51.34719 13.31720 13809 ft 383 kts 278°
2026-04-30 19:48 51.34950 13.27433 14334 ft 392 kts 278°
2026-04-30 19:49 51.35185 13.23045 14821 ft 400 kts 278°
2026-04-30 19:49 51.36005 13.14138 15791 ft 411 kts 284°
2026-04-30 19:49 51.36549 13.09615 16290 ft 417 kts 285°
2026-04-30 19:50 51.37100 13.05040 16792 ft 422 kts 285°
2026-04-30 19:50 51.37660 13.00403 17313 ft 426 kts 285°
2026-04-30 19:50 51.38223 12.95724 17837 ft 431 kts 285°
2026-04-30 19:50 51.38784 12.90993 18371 ft 435 kts 285°
2026-04-30 19:51 51.39345 12.86203 18884 ft 438 kts 285°
2026-04-30 19:51 51.39908 12.81389 19283 ft 444 kts 285°
2026-04-30 19:51 51.40486 12.76466 19412 ft 457 kts 285°
2026-04-30 19:51 51.41086 12.71393 19439 ft 470 kts 285°
2026-04-30 19:52 51.41703 12.66180 19433 ft 480 kts 285°
2026-04-30 19:52 51.42318 12.60896 19454 ft 483 kts 284°
2026-04-30 19:52 51.42916 12.55613 19816 ft 484 kts 283°
2026-04-30 19:52 51.43220 12.50206 20262 ft 487 kts 277°
2026-04-30 19:53 51.43450 12.44808 20697 ft 487 kts 277°
2026-04-30 19:53 51.43682 12.39377 21145 ft 487 kts 277°
2026-04-30 19:53 51.43913 12.33983 21599 ft 487 kts 277°
2026-04-30 19:53 51.44146 12.28572 22043 ft 487 kts 277°
2026-04-30 19:54 51.44378 12.23167 22433 ft 488 kts 277°
2026-04-30 19:54 51.44613 12.17720 22828 ft 489 kts 277°
2026-04-30 19:54 51.44847 12.12279 23230 ft 489 kts 277°
2026-04-30 19:54 51.45076 12.06850 23635 ft 490 kts 277°
2026-04-30 19:55 51.45299 12.01396 24037 ft 490 kts 277°
2026-04-30 19:55 51.45519 11.95920 24336 ft 492 kts 277°
2026-04-30 19:55 51.45738 11.90406 24420 ft 499 kts 277°
2026-04-30 19:55 51.45954 11.84810 24438 ft 507 kts 277°
2026-04-30 19:56 51.46170 11.79153 24439 ft 511 kts 277°
2026-04-30 19:56 51.46384 11.73463 24434 ft 512 kts 277°
2026-04-30 19:56 51.46596 11.67745 24437 ft 512 kts 277°
2026-04-30 19:56 51.46806 11.62045 24438 ft 512 kts 277°
2026-04-30 19:57 51.47016 11.56331 24440 ft 512 kts 277°
2026-04-30 19:57 51.47224 11.50645 24440 ft 512 kts 277°
2026-04-30 19:57 51.47430 11.44934 24440 ft 512 kts 277°
2026-04-30 19:57 51.47635 11.39212 24441 ft 513 kts 277°
2026-04-30 19:58 51.47834 11.33511 24440 ft 513 kts 276°
2026-04-30 19:58 51.48029 11.27814 24437 ft 513 kts 276°
2026-04-30 19:58 51.48222 11.22089 24433 ft 513 kts 276°
2026-04-30 19:58 51.48408 11.16385 24435 ft 513 kts 276°
2026-04-30 19:59 51.48591 11.10670 24436 ft 513 kts 276°
2026-04-30 19:59 51.49015 11.05023 24432 ft 508 kts 284°
2026-04-30 19:59 51.50306 10.93857 24433 ft 509 kts 284°
2026-04-30 20:00 51.50948 10.88281 24433 ft 509 kts 284°
2026-04-30 20:00 51.51588 10.82697 24438 ft 509 kts 284°
2026-04-30 20:00 51.52222 10.77121 24433 ft 508 kts 284°
2026-04-30 20:00 51.52852 10.71534 24435 ft 508 kts 283°
2026-04-30 20:01 51.53714 10.60339 24426 ft 513 kts 272°
2026-04-30 20:01 51.53634 10.54521 24431 ft 513 kts 271°
2026-04-30 20:01 51.53547 10.48801 24433 ft 513 kts 271°
2026-04-30 20:02 51.53354 10.37410 24430 ft 514 kts 271°
2026-04-30 20:02 51.53253 10.31603 24429 ft 513 kts 271°
2026-04-30 20:03 51.53054 10.20140 24430 ft 513 kts 271°
2026-04-30 20:03 51.52949 10.14501 24441 ft 513 kts 270°
2026-04-30 20:03 51.52834 10.08755 24440 ft 514 kts 270°
2026-04-30 20:03 51.52724 10.03019 24444 ft 514 kts 270°
2026-04-30 20:04 51.52617 9.97293 24440 ft 514 kts 270°
2026-04-30 20:04 51.52507 9.91557 24438 ft 513 kts 270°
2026-04-30 20:04 51.52394 9.85839 24441 ft 513 kts 270°
2026-04-30 20:05 51.52147 9.74391 24440 ft 512 kts 270°
2026-04-30 20:05 51.52018 9.68775 24431 ft 490 kts 270°
2026-04-30 20:05 51.51766 9.58349 24432 ft 447 kts 270°
2026-04-30 20:06 51.51642 9.53420 24432 ft 439 kts 270°
2026-04-30 20:06 51.51520 9.48553 24438 ft 437 kts 270°
2026-04-30 20:06 51.51402 9.43678 24431 ft 436 kts 270°
2026-04-30 20:06 51.51289 9.38826 24200 ft 436 kts 270°
2026-04-30 20:07 51.51174 9.33843 23826 ft 458 kts 270°
2026-04-30 20:07 51.51050 9.28628 23414 ft 479 kts 269°
2026-04-30 20:07 51.50766 9.17630 22594 ft 499 kts 269°
2026-04-30 20:08 51.50610 9.12080 22203 ft 498 kts 269°
2026-04-30 20:08 51.50509 9.06534 21815 ft 495 kts 271°
2026-04-30 20:08 51.50524 9.01015 21432 ft 492 kts 272°
2026-04-30 20:08 51.50621 8.95547 21037 ft 490 kts 274°
2026-04-30 20:09 51.50752 8.90098 20663 ft 488 kts 274°
2026-04-30 20:09 51.50882 8.84675 20291 ft 486 kts 273°
2026-04-30 20:09 51.51062 8.73898 19570 ft 482 kts 272°
2026-04-30 20:10 51.51148 8.63172 18775 ft 478 kts 271°
2026-04-30 20:10 51.51186 8.57859 18253 ft 475 kts 271°
2026-04-30 20:10 51.51225 8.52581 17727 ft 472 kts 271°
2026-04-30 20:11 51.51311 8.42108 16695 ft 465 kts 271°
2026-04-30 20:11 51.51355 8.36933 16192 ft 463 kts 271°
2026-04-30 20:11 51.51395 8.31790 15700 ft 460 kts 271°
2026-04-30 20:12 51.51465 8.21582 14725 ft 454 kts 270°
2026-04-30 20:12 51.51491 8.16523 14257 ft 452 kts 270°
2026-04-30 20:12 51.51516 8.11496 13733 ft 449 kts 270°
2026-04-30 20:13 51.51304 8.06533 13203 ft 442 kts 259°
2026-04-30 20:13 51.50554 8.01833 12693 ft 431 kts 252°
2026-04-30 20:13 51.49739 7.97252 12184 ft 421 kts 253°
2026-04-30 20:13 51.48948 7.92788 11682 ft 412 kts 253°
2026-04-30 20:14 51.48181 7.88420 11405 ft 399 kts 253°
2026-04-30 20:14 51.47451 7.84240 11369 ft 379 kts 253°
2026-04-30 20:14 51.46758 7.80281 11382 ft 359 kts 253°
2026-04-30 20:14 51.46101 7.76537 11381 ft 342 kts 252°
2026-04-30 20:15 51.45463 7.72944 11383 ft 326 kts 252°
2026-04-30 20:15 51.44850 7.69522 11381 ft 312 kts 252°
2026-04-30 20:15 51.44253 7.66215 11109 ft 309 kts 252°
2026-04-30 20:15 51.43654 7.62916 10741 ft 306 kts 252°
2026-04-30 20:16 51.43061 7.59662 10386 ft 301 kts 252°
2026-04-30 20:16 51.42479 7.56464 9993 ft 296 kts 251°
2026-04-30 20:16 51.41910 7.53327 9615 ft 293 kts 251°
2026-04-30 20:16 51.41357 7.50191 9222 ft 291 kts 252°
2026-04-30 20:17 51.40824 7.47067 8842 ft 289 kts 252°
2026-04-30 20:17 51.40299 7.43966 8462 ft 288 kts 252°
2026-04-30 20:17 51.39777 7.40883 8084 ft 286 kts 252°
2026-04-30 20:17 51.39257 7.37814 7714 ft 285 kts 252°
2026-04-30 20:18 51.38737 7.34770 7343 ft 283 kts 252°
2026-04-30 20:18 51.38215 7.31732 6984 ft 282 kts 251°
2026-04-30 20:18 51.37635 7.28746 6612 ft 278 kts 240°
2026-04-30 20:18 51.36559 7.26253 6231 ft 270 kts 225°
2026-04-30 20:19 51.35327 7.23999 5848 ft 269 kts 224°
2026-04-30 20:19 51.34504 7.22526 5594 ft 268 kts 224°
2026-04-30 20:19 51.32847 7.19579 5090 ft 265 kts 223°
2026-04-30 20:19 51.31615 7.17392 4697 ft 263 kts 223°
2026-04-30 20:20 51.30394 7.15221 4319 ft 263 kts 223°
2026-04-30 20:20 51.29182 7.13010 4025 ft 265 kts 226°
2026-04-30 20:20 51.28055 7.10661 4007 ft 267 kts 228°
2026-04-30 20:20 51.26940 7.08282 4012 ft 267 kts 228°
2026-04-30 20:21 51.25827 7.05914 4012 ft 268 kts 228°
2026-04-30 20:21 51.24710 7.03528 4011 ft 268 kts 228°
2026-04-30 20:21 51.23618 7.01132 4013 ft 269 kts 231°
2026-04-30 20:21 51.22616 6.98617 4012 ft 269 kts 233°
2026-04-30 20:22 51.21632 6.96072 4008 ft 269 kts 234°
2026-04-30 20:22 51.20740 6.93434 4007 ft 271 kts 238°
2026-04-30 20:22 51.19916 6.90821 3985 ft 255 kts 238°
2026-04-30 20:22 51.19139 6.88325 3732 ft 249 kts 238°
2026-04-30 20:23 51.18390 6.85868 3480 ft 244 kts 238°
2026-04-30 20:23 51.17655 6.83437 3228 ft 243 kts 238°
2026-04-30 20:23 51.16933 6.81068 3043 ft 239 kts 238°
2026-04-30 20:23 51.16201 6.78658 3000 ft 238 kts 238°
2026-04-30 20:24 51.15491 6.76284 3004 ft 238 kts 238°
2026-04-30 20:24 51.14775 6.73882 3014 ft 242 kts 238°
2026-04-30 20:24 51.14055 6.71444 3008 ft 244 kts 238°
2026-04-30 20:24 51.13328 6.69000 3007 ft 244 kts 238°
2026-04-30 20:25 51.12116 6.63945 3013 ft 249 kts 262°
2026-04-30 20:25 51.12405 6.61277 3008 ft 244 kts 292°
2026-04-30 20:26 51.14692 6.57597 3007 ft 232 kts 339°
2026-04-30 20:26 51.17686 6.56961 3014 ft 206 kts 18°
2026-04-30 20:26 51.18997 6.57666 2931 ft 193 kts 36°
2026-04-30 20:27 51.20847 6.60336 2521 ft 171 kts 61°
2026-04-30 20:27 51.22245 6.63247 2093 ft 162 kts 62°
2026-04-30 20:28 51.23611 6.66100 1644 ft 161 kts 60°
2026-04-30 20:28 51.24916 6.68823 1215 ft 148 kts 59°
2026-04-30 20:29 51.25924 6.70930 885 ft 138 kts 56°
2026-04-30 20:30 51.27592 6.74424 357 ft 128 kts 55°
2026-04-30 20:30 51.28861 6.77084 126 ft 38 kts 52°
2026-04-30 20:31 51.28983 6.77596 123 ft 11 kts 138°
2026-04-30 20:32 51.28812 6.77455 128 ft 14 kts 232°
2026-04-30 20:32 51.28697 6.77214 128 ft 16 kts 232°
2026-04-30 20:33 51.28625 6.77065 124 ft 16 kts 233°
2026-04-30 20:33 51.28496 6.76792 125 ft 15 kts 233°
2026-04-30 20:33 51.28445 6.76684 123 ft 12 kts 232°
2026-04-30 20:34 51.28350 6.76496 123 ft 9 kts 213°
2026-04-30 20:34 51.28275 6.76492 126 ft 4 kts 203°
2026-04-30 20:35 51.28255 6.76467 122 ft 6 kts 223°
2026-04-30 20:35 51.28223 6.76441 126 ft 5 kts 196°
2026-04-30 20:35 51.28158 6.76426 126 ft 6 kts 187°
2026-04-30 20:36 51.28139 6.76423 127 ft 2 kts 187°
2026-04-30 20:36 51.28124 6.76423 126 ft 2 kts 169°
2026-04-30 20:36 51.28115 6.76457 126 ft 1 kts 101°
2026-04-30 20:37 51.28112 6.76488 125 ft 4 kts 96°
2026-04-30 20:37 51.28109 6.76532 127 ft 3 kts 96°
2026-04-30 20:37 51.28108 6.76546 126 ft 0 kts 96°